Weather History for Jackson, MN

Change the Weather History Date:

Thursday, June 6, 2013

  Actual Average Record
Temperature  
Mean Temperature 55 °F -  
Max Temperature 60 °F 73 °F 96 °F (2011)
Min Temperature 50 °F 53 °F 44 °F (1998)
Degree Days  
Heating Degree Days 10    
Growing Degree Days 5 (Base 50)    
Moisture  
Dew Point 48 °F    
Average Humidity 75    
Maximum Humidity 94    
Minimum Humidity 59    
Precipitation  
Precipitation 0.00 in - - ()
Sea Level Pressure  
Sea Level Pressure 30.00 in    
Wind  
Wind Speed 6 mph (North)    
Max Wind Speed 14 mph    
Max Gust Speed 17 mph    
Visibility 9 miles    
Events      
Averages and records for this station are not official NWS values.
T = Trace of Precipitation, MM = Missing Value Source: NWS Daily Summary

Daily Weather History Graph

Daily Weather History Graph

Search for Another Location

Airport:

Trip Planner

Search our weather history database for the weather conditions in past years. The results will help you decide how hot, cold, wet, or windy it might be!

Date:

Astronomy

Jun. 06, 2013 Rise Set
Actual Time 5:39 AM CDT 8:58 PM CDT
Civil Twilight 5:03 AM CDT 9:34 PM CDT
Nautical Twilight 4:17 AM CDT 10:20 PM CDT
Astronomical Twilight 3:20 AM CDT 11:17 PM CDT
Moon 4:24 AM CDT (6/6) 7:18 PM CDT (6/6)
Length of Visible Light 16h 30m
Length of Day
15h 19m
Waning Crescent, 3% of the Moon is Illuminated
Jun 6
Waning Crescent
Jun 8
New
Jun 16
First Quarter
Jun 23
Full
Jun 29
Last Quarter

Hourly Weather History & Observations

Time (CDT) Temp. Dew Point Humidity Pressure Visibility Wind Dir Wind Speed Gust Speed Precip Events Conditions
12:14 AM 57.2 °F 50.0 °F 77% 29.98 in 10.0 mi NNW 3.5 mph - N/A   Overcast
12:34 AM 57.2 °F 50.0 °F 77% 29.98 in 10.0 mi North 3.5 mph - N/A   Overcast
12:54 AM 57.2 °F 50.0 °F 77% 29.98 in 10.0 mi Calm Calm - N/A   Overcast
1:14 AM 55.4 °F 51.8 °F 88% 29.98 in 10.0 mi NW 4.6 mph - N/A   Overcast
1:34 AM 55.4 °F 50.0 °F 82% 29.98 in 10.0 mi North 3.5 mph - N/A   Scattered Clouds
1:54 AM 53.6 °F 50.0 °F 88% 29.98 in 10.0 mi North 3.5 mph - N/A   Clear
2:14 AM 53.6 °F 48.2 °F 82% 29.98 in 10.0 mi North 3.5 mph - N/A   Clear
2:34 AM 51.8 °F 48.2 °F 88% 29.98 in 10.0 mi Calm Calm - N/A   Clear
2:54 AM 51.8 °F 46.4 °F 82% - 7.0 mi North 3.5 mph - N/A   Clear
3:14 AM 51.8 °F 48.2 °F 88% 29.97 in 7.0 mi North 5.8 mph - N/A   Clear
3:34 AM 50.0 °F 46.4 °F 87% 29.97 in 5.0 mi North 5.8 mph - N/A   Scattered Clouds
3:54 AM 50.0 °F 46.4 °F 87% 29.96 in 5.0 mi NNE 4.6 mph - N/A   Clear
4:14 AM 50.0 °F 46.4 °F 87% 29.96 in 2.5 mi North 4.6 mph - N/A   Clear
4:33 AM 50.0 °F 46.4 °F 87% 29.96 in 1.8 mi Calm Calm - N/A   Scattered Clouds
4:54 AM 50.0 °F 46.4 °F 87% 29.96 in 0.8 mi North 8.1 mph - N/A   Overcast
5:14 AM 51.8 °F 50.0 °F 94% 29.97 in 2.0 mi North 6.9 mph - N/A   Overcast
5:33 AM 53.6 °F 50.0 °F 88% 29.97 in 2.0 mi North 5.8 mph - N/A   Overcast
5:54 AM 53.6 °F 51.8 °F 94% 29.97 in 2.0 mi North 8.1 mph - N/A   Overcast
6:14 AM 53.6 °F 50.0 °F 88% 29.97 in 2.0 mi NNE 5.8 mph - N/A   Overcast
6:34 AM 51.8 °F 50.0 °F 94% 29.98 in 3.0 mi NNE 5.8 mph - N/A   Mostly Cloudy
6:54 AM 53.6 °F 50.0 °F 88% 29.98 in 3.0 mi North 4.6 mph - N/A   Overcast
7:14 AM 53.6 °F 50.0 °F 88% 29.99 in 5.0 mi North 4.6 mph - N/A   Overcast
7:34 AM 53.6 °F 50.0 °F 88% 29.99 in 7.0 mi North 8.1 mph - N/A   Overcast
7:54 AM 53.6 °F 50.0 °F 88% 29.99 in 10.0 mi North 5.8 mph - N/A   Overcast
8:13 AM 53.6 °F 50.0 °F 88% 29.99 in 10.0 mi North 4.6 mph - N/A   Overcast
8:34 AM 53.6 °F 50.0 °F 88% 30.00 in 10.0 mi North 5.8 mph - N/A   Overcast
8:53 AM 53.6 °F 50.0 °F 88% 30.00 in 10.0 mi North 5.8 mph - N/A   Overcast
9:14 AM 53.6 °F 50.0 °F 88% 30.01 in 10.0 mi North 3.5 mph - N/A   Overcast
9:34 AM 55.4 °F 50.0 °F 82% 30.01 in 10.0 mi North 4.6 mph - N/A   Overcast
9:53 AM 55.4 °F 50.0 °F 82% 30.01 in 10.0 mi North 4.6 mph - N/A   Overcast
10:14 AM 55.4 °F 50.0 °F 82% 30.01 in 10.0 mi North 5.8 mph - N/A   Overcast
10:34 AM 55.4 °F 50.0 °F 82% 30.01 in 10.0 mi North 5.8 mph - N/A   Overcast
10:53 AM 55.4 °F 48.2 °F 77% 30.01 in 10.0 mi North 9.2 mph - N/A   Overcast
11:14 AM 57.2 °F 48.2 °F 72% 30.01 in 10.0 mi North 8.1 mph - N/A   Overcast
11:33 AM 59.0 °F 48.2 °F 67% 30.01 in 10.0 mi NNW 11.5 mph 16.1 mph N/A   Overcast
11:54 AM 57.2 °F 46.4 °F 67% 30.01 in 10.0 mi North 6.9 mph 17.3 mph N/A   Overcast
12:14 PM 59.0 °F 46.4 °F 63% 30.01 in 10.0 mi North 8.1 mph 16.1 mph N/A   Overcast
12:33 PM 59.0 °F 46.4 °F 63% 30.01 in 10.0 mi NNW 8.1 mph 16.1 mph N/A   Overcast
12:54 PM 59.0 °F 46.4 °F 63% 30.01 in 10.0 mi NNW 10.4 mph 16.1 mph N/A   Overcast
1:14 PM 57.2 °F 46.4 °F 67% 30.01 in 10.0 mi NNW 12.7 mph 16.1 mph N/A   Overcast
1:33 PM 57.2 °F 46.4 °F 67% 30.01 in 10.0 mi NNW 13.8 mph - N/A   Overcast
1:54 PM 59.0 °F 46.4 °F 63% 30.01 in 10.0 mi NNW 8.1 mph - N/A   Overcast
2:13 PM 57.2 °F 46.4 °F 67% 30.01 in 10.0 mi NNW 10.4 mph 17.3 mph N/A   Overcast
2:34 PM 59.0 °F 46.4 °F 63% 30.00 in 10.0 mi NW 9.2 mph - N/A   Overcast
2:54 PM 60.8 °F 46.4 °F 59% 30.00 in 10.0 mi NNW 10.4 mph - N/A   Overcast
3:14 PM 60.8 °F 46.4 °F 59% 30.01 in 10.0 mi NW 8.1 mph - N/A   Overcast
3:34 PM 59.0 °F 46.4 °F 63% 30.01 in 10.0 mi NW 8.1 mph - N/A   Overcast
3:53 PM 60.8 °F 46.4 °F 59% 30.01 in 10.0 mi NNW 9.2 mph - N/A   Overcast
4:14 PM 60.8 °F 46.4 °F 59% 30.00 in 10.0 mi NNW 8.1 mph - N/A   Overcast
4:34 PM 60.8 °F 46.4 °F 59% 30.00 in 10.0 mi NNW 9.2 mph - N/A   Overcast
4:53 PM 60.8 °F 46.4 °F 59% 30.01 in 10.0 mi NW 10.4 mph 16.1 mph N/A   Overcast
5:14 PM 60.8 °F 46.4 °F 59% 30.01 in 10.0 mi North 5.8 mph - N/A   Overcast
5:34 PM 60.8 °F 46.4 °F 59% 30.01 in 10.0 mi North 5.8 mph - N/A   Overcast
5:54 PM 60.8 °F 46.4 °F 59% 30.01 in 10.0 mi North 6.9 mph - N/A   Overcast
6:14 PM 60.8 °F 46.4 °F 59% 30.01 in 10.0 mi North 6.9 mph - N/A   Overcast
6:34 PM 60.8 °F 46.4 °F 59% 30.01 in 10.0 mi North 9.2 mph - N/A   Overcast
6:53 PM 60.8 °F 46.4 °F 59% 30.01 in 10.0 mi North 8.1 mph - N/A   Overcast
7:14 PM 60.8 °F 46.4 °F 59% 30.01 in 10.0 mi North 6.9 mph - N/A   Overcast
7:34 PM 59.0 °F 48.2 °F 67% 30.01 in 10.0 mi North 6.9 mph - N/A   Overcast
7:54 PM 59.0 °F 48.2 °F 67% 30.01 in 10.0 mi NE 9.2 mph - N/A   Overcast
8:14 PM 59.0 °F 48.2 °F 67% 30.01 in 10.0 mi NNE 11.5 mph - N/A   Overcast
8:33 PM 59.0 °F 46.4 °F 63% 30.01 in 10.0 mi NNE 9.2 mph - N/A   Overcast
8:54 PM 57.2 °F 46.4 °F 67% 30.02 in 10.0 mi NNE 6.9 mph - N/A   Overcast
9:14 PM 57.2 °F 46.4 °F 67% 30.02 in 10.0 mi NNE 8.1 mph - N/A   Overcast
9:33 PM 57.2 °F 46.4 °F 67% 30.03 in 10.0 mi NNE 6.9 mph - N/A   Overcast
9:54 PM 55.4 °F 48.2 °F 77% 30.03 in 10.0 mi NE 9.2 mph - N/A   Overcast
10:14 PM 55.4 °F 48.2 °F 77% 30.04 in 10.0 mi NNE 8.1 mph - N/A   Overcast
10:33 PM 55.4 °F 48.2 °F 77% 30.04 in 10.0 mi NNE 6.9 mph - N/A   Overcast
10:54 PM 55.4 °F 48.2 °F 77% 30.04 in 10.0 mi NNE 6.9 mph - N/A   Overcast
11:14 PM 55.4 °F 48.2 °F 77% 30.03 in 10.0 mi NE 4.6 mph - N/A   Overcast
11:33 PM 51.8 °F 46.4 °F 82% 30.03 in 10.0 mi NE 3.5 mph - N/A   Scattered Clouds
11:54 PM 51.8 °F 46.4 °F 82% 30.04 in 10.0 mi NE 3.5 mph - N/A   Clear